ASIASAT 8

导读

ASIASAT 8(亚洲八号卫星)是亚洲卫星系列的通信卫星,于北京时间2014年8月5日由ASTC相关方安排,在卡纳维拉尔角太空军基地通过猎鹰9号v1.1火箭发射升空。卫星定位于地球静止轨道,总质量约4535千克,设计服役寿命15年,主要为亚太区域提供广播电视传输、宽带通信等服务,是亚洲卫星网络布局的重要组成部分。

基本信息
目录编号:
40107
目录名称:
ASIASAT 8
国际标识:
2014-046A
轨道中心:
EARTH
卫星名称:
ASIASAT 8
卫星全名:
--
卫星状态:
在轨 (已飞行4334 天)
发射日期:
2014-08-05 UTC
国别 :
(ASTC)
星等 :
--
轨道信息
数据来源 国际轨道数据 AOE轨道数据
星历时间 2026-06-17T02:10:05+0800
20小时前
查看轨道信息
2026-06-17T04:00:00+0800
18小时前
查看轨道信息
半长轴 42164.14km 42164.196km
偏心率 0.0001259 0.0001111
轨道倾角 0.011° 0.016°
近地点辐角 33.845° 28.531°
升交点赤经 42.292° 40.033°
平近点角 206.691° 241.818°
近地点 35780.694km 35781.374km
远地点 35791.312km 35790.744km
周期 1436.067分钟 1436.069分钟
每日圈数 1.002739 1.002737
详细信息
使用方式:
暂无
2D轨道图
3D轨道图
轨道高度分析图
轨道倾角分析图
轨道综合分析图
查看轨道综合分析图